Location: Amsterdam
(30.7274°N, 84.4357°W)
Time: 21:44:55
(UTC+00:00)

Tiros 1 despin weight - Pass Details

Date: 21 February 2026
Orbit: 556 x 593 km, 48.2° (Epoch: 7 March)

Event Time Altitude Azimuth Distance (km) Brightness Sun altitude
Rises 01:20:39 0° 318° (NW) 2,731 ? -24.5°
Reaches altitude 10° 01:23:02 10° 327° (NNW) 1,836 ? -25.0°
Enters shadow 01:25:11 25° 348° (NNW) 1,142 ? -25.5°
Maximum altitude 01:26:55 36° 35° (NE) 886 - -25.9°
Drops below altitude 10° 01:30:50 10° 103° (ESE) 1,842 - -26.7°
Sets 01:33:13 0° 112° (ESE) 2,741 - -27.2°
